This is the latest recevied weather packets stored in our database for station/object F4AMY-13. If no packets are shown the sender has not sent any weather packets the latest 10 day(s).
| Time | Temp. | Humidity | Pressure | Rain* | Wind** | Luminosity | Snow |
|---|---|---|---|---|---|---|---|
| 1777530117 | 11.67° C | 66% | 1015 hPa | 0 mm | 7.6 m/s, ° | 17 W/m² | - |
| 1777529817 | 11.11° C | 64% | 1015.2 hPa | 0 mm | 7.6 m/s, ° | 17 W/m² | - |
| 1777529517 | 10.56° C | 68% | 1015.2 hPa | 0 mm | 7.6 m/s, ° | 17 W/m² | - |
| 1777529217 | 10° C | 72% | 1015.1 hPa | 0 mm | 3.13 m/s, ° | 7 W/m² | - |
| 1777528916 | 10° C | 82% | 1015 hPa | 0 mm | 2.68 m/s, ° | 6 W/m² | - |
| 1777528616 | 9.44° C | 84% | 1014.9 hPa | 0 mm | 2.24 m/s, ° | 5 W/m² | - |
| 1777528316 | 9.44° C | 85% | 1015.2 hPa | 0 mm | 1.79 m/s, ° | 4 W/m² | - |
| 1777528016 | 8.89° C | 85% | 1015.3 hPa | 0 mm | 1.79 m/s, ° | 4 W/m² | - |
| 1777527716 | 8.89° C | 86% | 1015.3 hPa | 0 mm | 1.34 m/s, ° | 3 W/m² | - |
| 1777527416 | 8.89° C | 86% | 1015.1 hPa | 0 mm | 0.89 m/s, ° | 2 W/m² | - |
| 1777527116 | 8.89° C | 86% | 1015 hPa | 0 mm | 0.45 m/s, ° | 1 W/m² | - |
| 1777526816 | 8.33° C | 86% | 1014.9 hPa | 0 mm | 0 m/s | 0 W/m² | - |
| 1777526516 | 8.33° C | 86% | 1014.8 hPa | 0 mm | 0 m/s | 0 W/m² | - |
| 1777526216 | 8.33° C | 86% | 1014.9 hPa | 0 mm | 0 m/s | 0 W/m² | - |
| 1777525916 | 8.33° C | 86% | 1014.9 hPa | 0 mm | 0 m/s | 0 W/m² | - |
| 1777525616 | 8.33° C | 86% | 1014.8 hPa | 0 mm | 0 m/s | 0 W/m² | - |
| 1777525316 | 8.33° C | 86% | 1014.7 hPa | 0 mm | 0 m/s | 0 W/m² | - |
| 1777525015 | 8.33° C | 86% | 1014.9 hPa | 0 mm | 0 m/s | 0 W/m² | - |
| 1777524715 | 8.33° C | 86% | 1014.8 hPa | 0 mm | 0 m/s | 0 W/m² | - |
| 1777524415 | 8.33° C | 85% | 1014.7 hPa | 0 mm | 0 m/s | 0 W/m² | - |
| 1777524115 | 8.33° C | 85% | 1014.7 hPa | 0 mm | 0 m/s | 0 W/m² | - |
| 1777523815 | 8.33° C | 85% | 1014.7 hPa | 0 mm | 0 m/s | 0 W/m² | - |
| 1777523515 | 8.89° C | 85% | 1014.6 hPa | 0 mm | 0 m/s | 0 W/m² | - |
| 1777523215 | 8.89° C | 85% | 1014.3 hPa | 0 mm | 0 m/s | 0 W/m² | - |
| 1777522914 | 8.89° C | 85% | 1014.4 hPa | 0 mm | 0 m/s | 0 W/m² | - |
* Rain latest hour (hover to see other rain measurements)
** Current wind speed in m/s (hover to see current wind gust speed)